Terug naar catalogus

STARLINK-34077

ActiefCommunicatieVLEO
NORAD 64009·PAYLOAD·🇺🇸 United States

Gelanceerd May 14, 2025 vanaf Cape Canaveral Space Force Station

Loading…

Volgende Passages (komende 24 uur)

TLE

VersSource: CelesTrak SupGP

Epoch: Sep 15, 2026, 02:44 UTC

1 64009C 25101R   26258.11437500  .00017103  00000+0  61948-3 0  2582
2 64009  43.0036   7.9514 0001259 267.5674 250.9342 15.27570666    18

Volg STARLINK-34077 in realtime met AllMySat

Download on the App Store